Location: Hastringsfeld
(50.9620°N, 10.4787°E)
Time: 20:00:20
(UTC+00:00)

COSMO-SKYMED 1 - Pass Details

Date: 26 September 2023
Orbit: 621 x 623 km, 97.9° (Epoch: 10 December)

Event Time Altitude Azimuth Distance (km) Brightness Sun altitude
Rises 03:50:31 0° 149° (SSE) 2,893 6.2 -13.2°
Reaches altitude 10° 03:52:44 10° 144° (SE) 1,991 5.4 -12.9°
Maximum altitude 03:56:55 49° 70° (ENE) 805 3.6 -12.2°
Drops below altitude 10° 04:01:08 10° 355° (N) 2,008 5.3 -11.6°
Sets 04:03:22 0° 350° (N) 2,919 6.1 -11.2°
